Location: Allie Creek
(37.5926°N, 89.8526°W)
Time: 08:05:25
(UTC+00:00)

FENGYUN 1C DEB - Pass Details

Date: 18 June 2024
Orbit: 785 x 860 km, 98.6° (Epoch: 14 July)

Event Time Altitude Azimuth Distance (km) Brightness Sun altitude
Rises 01:47:33 0° 208° (SSW) 3,306 ? -4.9°
Reaches altitude 10° 01:50:47 10° 229° (SW) 2,368 ? -5.4°
Maximum altitude 01:54:00 16° 267° (W) 1,948 ? -5.9°
Drops below altitude 10° 01:57:13 10° 306° (NW) 2,357 ? -6.4°
Sets 02:00:26 0° 327° (NNW) 3,285 ? -6.9°
